Home   Weather   Lomé   Past weeks

Flag for Togo Past Weather in Lomé, Togo — Yesterday and Last 2 Weeks

Now
75 °F

Thunderstorms. Partly cloudy.


Feels Like: 73 °F
Forecast: 78 / 84 °F
Wind: 7 mph from West

Location: Lome Airport

Current Time: Sep 25, 2016 at 2:13:12 AM

Latest Report: Sep 25, 2016 at 1:00 AM


Visibility: 5 mi

Pressure: 29.89 "Hg

Humidity: 100%

Dew Point: 75 °F

Location of LoméLocation

Past Weather in Lomé — Graph

°F

Lomé Temperature Yesterday

Maximum temperature yesterday: 86 °F (at 11:00 AM)
Minimum temperature yesterday: 75 °F (at 1:00 AM)
Average temperature yesterday: 79 °F

High & Low Weather Summary for the Past Weeks

 TemperatureHumidityPressure
High86 °F (Sep 10, 2:00 PM)100% (Sep 10, 10:00 PM)30.04 "Hg (Sep 10, 10:00 PM)
Low73 °F (Sep 17, 5:00 AM)66% (Sep 18, 12:00 PM)29.83 "Hg (Sep 12, 3:00 PM)
Average80 °F88%29.93 "Hg
* Reported Sep 10 1:00 AM — Sep 25 1:00 AM, Lomé, Weather by CustomWeather, © 2016

Note: Actual official high and low records may vary slightly from our data, if they occured in-between our weather recording intervals... More about our weather records

Advertising

Lomé Weather History for the Previous 24 Hours

Scroll right to see more
 ConditionsComfort  
Time TempWeatherWind HumidityBarometerVisibility
1:00 AM
Sun, Sep 25
75 °FThunderstorms. Partly cloudy.7 mph100%29.89 "Hg5 mi
12:00 AM75 °FThunderstorms. Partly cloudy.No wind94%29.92 "Hg5 mi
11:00 PM
Sat, Sep 24
79 °FThunderstorms. Passing clouds.8 mph89%29.92 "HgN/A
10:00 PM79 °FThunderstorms. Passing clouds.2 mph89%29.92 "HgN/A
9:00 PM79 °FThunderstorms. Passing clouds.5 mph89%29.92 "HgN/A
8:00 PM79 °FThunderstorms. Passing clouds.13 mph89%29.89 "HgN/A
7:00 PM81 °FThunderstorms. Passing clouds.15 mph89%29.86 "HgN/A
6:00 PM81 °FThunderstorms. Passing clouds.15 mph89%29.86 "HgN/A
5:00 PM81 °FThunderstorms. Scattered clouds.13 mph94%29.83 "HgN/A
4:00 PM81 °FThunderstorms. Scattered clouds.13 mph89%29.83 "HgN/A
3:00 PM82 °FThunderstorms. Scattered clouds.18 mph84%29.86 "HgN/A
2:00 PM84 °FScattered clouds.10 mph79%29.86 "HgN/A
1:00 PM84 °FScattered clouds.9 mph79%29.89 "HgN/A
12:00 PM82 °FBroken clouds.9 mph84%29.92 "HgN/A
11:00 AM86 °FScattered clouds.6 mph70%29.95 "HgN/A
10:00 AM82 °FPassing clouds.5 mph79%29.98 "HgN/A
9:00 AM79 °FPassing clouds.5 mph89%29.98 "HgN/A
8:00 AM77 °FPartly sunny.3 mph94%29.98 "Hg5 mi
7:00 AM75 °FPartly sunny.1 mph100%29.98 "Hg5 mi
6:00 AM75 °FScattered clouds.No wind100%29.95 "Hg5 mi
5:00 AM75 °FPassing clouds.No wind100%29.92 "HgN/A
4:00 AM75 °FPassing clouds.1 mph100%29.89 "HgN/A
3:00 AM75 °FPartly cloudy.2 mph100%29.89 "HgN/A
2:00 AM75 °FPassing clouds.3 mph100%29.89 "HgN/A
Weather by CustomWeather, © 2016

See weather overviewHow to use our weather pages